Location: Beneden-Haastrecht
(52.0012°N, 4.7557°E)
Time: 11:10:31
(UTC+00:00)

X-37B - Pass Details

Date: 27 January 2021
Orbit: 383 x 391 km, 45.0° (Epoch: 27 February)

Event Time Altitude Azimuth Distance (km) Brightness Sun altitude
Rises 18:42:24 0° 261° (W) 2,275 6.0 -21.7°
Reaches altitude 10° 18:44:59 10° 239° (WSW) 1,420 4.3 -22.1°
Maximum altitude 18:47:05 16° 198° (SSW) 1,104 3.0 -22.4°
Enters shadow 18:47:08 16° 197° (SSW) 1,104 3.0 -22.4°
